Torna al catalogo

CZ-4C DEB

AttivoSSO
NORAD 38293·DEBRIS·🇨🇳 China

Lanciato Nov 4, 2010 da Taiyuan Satellite Launch Center

Loading…

Prossimi Passaggi (prossime 24 ore)

TLE

AggiornatoSource: Space-Track

Epoca: Sep 14, 2026, 11:08 UTC

1 38293U 10059C   26257.46403539  .00000045  00000-0  34646-4 0  9992
2 38293  98.5964 336.4704 0011604  14.6132 345.5383 14.29421431818890

Traccia CZ-4C DEB in tempo reale con AllMySat

Download on the App Store